| time (UTC) | temp F | wind direction | speed knots | gust knots | rain 1hr in | rain 24hr in | rain mn in | humidity % | barometer mb |
| 20260902093030 | 66 | 228 | 8.7 | 13.9 | 0.00 | 0.00 | 0.00 | 83 | 1019.2 |
| 20260902092029 | 66 | 219 | 7.0 | 11.3 | 0.00 | 0.00 | 0.00 | 84 | 1019.1 |
| 20260902091031 | 65 | 209 | 5.2 | 8.7 | 0.00 | 0.00 | 0.00 | 85 | 1019.1 |
| 20260902090030 | 65 | 191 | 4.3 | 10.4 | 0.00 | 0.00 | 0.00 | 86 | 1019.0 |
| 20260902085030 | 64 | 199 | 5.2 | 9.6 | 0.00 | 0.00 | 0.00 | 87 | 1019.1 |
| 20260902084030 | 64 | 194 | 5.2 | 10.4 | 0.00 | 0.00 | 0.00 | 87 | 1019.0 |
| 20260902083030 | 63 | 205 | 6.1 | 12.2 | 0.00 | 0.00 | 0.00 | 87 | 1018.9 |
| 20260902082030 | 63 | 199 | 6.1 | 12.2 | 0.00 | 0.00 | 0.00 | 88 | 1018.9 |
| 20260902081030 | 62 | 183 | 5.2 | 10.4 | 0.00 | 0.00 | 0.00 | 89 | 1018.9 |
| 20260902080030 | 62 | 196 | 6.1 | 10.4 | 0.00 | 0.00 | 0.00 | 89 | 1018.8 |
| 20260902075030 | 61 | 202 | 3.5 | 9.6 | 0.00 | 0.00 | 0.00 | 90 | 1018.8 |
| 20260902074029 | 61 | 188 | 3.5 | 8.7 | 0.00 | 0.00 | 0.00 | 90 | 1018.7 |
| 20260902073030 | 60 | 169 | 3.5 | 10.4 | 0.00 | 0.00 | 0.00 | 90 | 1018.5 |
| 20260902072030 | 60 | 186 | 3.5 | 8.7 | 0.00 | 0.00 | 0.00 | 90 | 1018.5 |
| 20260902071029 | 59 | 184 | 1.7 | 7.0 | 0.00 | 0.00 | 0.00 | 90 | 1018.5 |
| 20260902070030 | 59 | 203 | 2.6 | 7.0 | 0.00 | 0.00 | 0.00 | 90 | 1018.4 |
| 20260902065030 | 59 | 180 | 2.6 | 7.0 | 0.00 | 0.00 | 0.00 | 90 | 1018.5 |
| 20260902064030 | 59 | 189 | 1.7 | 7.0 | 0.00 | 0.00 | 0.00 | 90 | 1018.5 |
| 20260902063030 | 58 | 164 | 1.7 | 5.2 | 0.00 | 0.00 | 0.00 | 89 | 1018.6 |
| 20260902062030 | 58 | 155 | 1.7 | 4.3 | 0.00 | 0.00 | 0.00 | 89 | 1018.5 |
| 20260902060030 | 58 | 143 | 1.7 | 4.3 | 0.00 | 0.00 | 0.00 | 89 | 1018.4 |
| 20260902055030 | 58 | 129 | 1.7 | 3.5 | 0.00 | 0.00 | 0.00 | 89 | 1018.4 |
| 20260902054029 | 58 | 139 | 1.7 | 4.3 | 0.00 | 0.00 | 0.00 | 89 | 1018.4 |
| 20260902053033 | 58 | 126 | 1.7 | 3.5 | 0.00 | 0.00 | 0.00 | 88 | 1018.5 |
| 20260902052030 | 58 | 127 | 1.7 | 4.3 | 0.00 | 0.00 | 0.00 | 88 | 1018.4 |
| 20260902051030 | 58 | 136 | 1.7 | 5.2 | 0.00 | 0.00 | 0.00 | 88 | 1018.4 |
| 20260902050030 | 58 | 121 | 1.7 | 3.5 | 0.00 | 0.00 | 0.00 | 88 | 1018.3 |
| 20260902045030 | 58 | 119 | 1.7 | 5.2 | 0.00 | 0.00 | 0.00 | 87 | 1018.3 |
| 20260902044030 | 58 | 128 | 1.7 | 6.1 | 0.00 | 0.00 | 0.00 | 87 | 1018.3 |
| 20260902043029 | 58 | 116 | 1.7 | 5.2 | 0.00 | 0.00 | 0.00 | 87 | 1018.3 |
| 20260902042030 | 58 | 118 | 1.7 | 7.0 | 0.00 | 0.00 | 0.00 | 87 | 1018.3 |
| 20260902041030 | 58 | 118 | 1.7 | 7.0 | 0.00 | 0.00 | 0.00 | 86 | 1018.3 |
| 20260902040030 | 58 | 132 | 1.7 | 5.2 | 0.00 | 0.00 | 0.00 | 86 | 1018.4 |
| 20260902035030 | 58 | 136 | 1.7 | 5.2 | 0.00 | 0.00 | 0.00 | 86 | 1018.5 |
| 20260902034030 | 58 | 111 | 1.7 | 6.1 | 0.00 | 0.00 | 0.00 | 86 | 1018.4 |
| 20260902033030 | 58 | 100 | 2.6 | 6.1 | 0.00 | 0.00 | 0.00 | 85 | 1018.6 |
| 20260902032030 | 59 | 118 | 1.7 | 6.1 | 0.00 | 0.00 | 0.00 | 85 | 1018.6 |
| 20260902031030 | 59 | 104 | 1.7 | 6.1 | 0.00 | 0.00 | 0.00 | 85 | 1018.6 |
| 20260902030030 | 59 | 123 | 1.7 | 6.1 | 0.00 | 0.00 | 0.00 | 85 | 1018.7 |
| 20260902025030 | 59 | 113 | 2.6 | 6.1 | 0.00 | 0.00 | 0.00 | 84 | 1018.7 |
| 20260902024030 | 59 | 113 | 1.7 | 6.1 | 0.00 | 0.00 | 0.00 | 84 | 1018.7 |
| 20260902023029 | 59 | 116 | 1.7 | 6.1 | 0.00 | 0.00 | 0.00 | 84 | 1018.8 |
| 20260902022030 | 59 | 110 | 1.7 | 5.2 | 0.00 | 0.00 | 0.00 | 84 | 1018.9 |
| 20260902021030 | 59 | 132 | 1.7 | 5.2 | 0.00 | 0.00 | 0.00 | 84 | 1018.9 |
| 20260902020030 | 59 | 139 | 1.7 | 4.3 | 0.00 | 0.00 | 0.00 | 84 | 1019.1 |
| 20260902015030 | 58 | 126 | 1.7 | 4.3 | 0.00 | 0.00 | 0.00 | 84 | 1019.1 |
| 20260902014030 | 58 | 124 | 1.7 | 3.5 | 0.00 | 0.00 | 0.00 | 84 | 1019.2 |
| 20260902013030 | 58 | 128 | 1.7 | 4.3 | 0.00 | 0.00 | 0.00 | 84 | 1019.3 |
| 20260902012029 | 58 | 134 | 1.7 | 4.3 | 0.00 | 0.00 | 0.00 | 83 | 1019.1 |
| 20260902011030 | 59 | 136 | 1.7 | 6.1 | 0.00 | 0.00 | 0.00 | 83 | 1019.1 |
| 20260902010029 | 59 | 129 | 1.7 | 4.3 | 0.00 | 0.00 | 0.00 | 83 | 1019.1 |
| 20260902005031 | 59 | 138 | 1.7 | 4.3 | 0.00 | 0.00 | 0.00 | 82 | 1019.1 |
| 20260902004030 | 59 | 144 | 1.7 | 4.3 | 0.00 | 0.00 | 0.00 | 82 | 1019.4 |
| 20260902003030 | 59 | 132 | 1.7 | 5.2 | 0.00 | 0.00 | 0.00 | 82 | 1019.2 |
| 20260902002030 | 60 | 126 | 0.9 | 3.5 | 0.00 | 0.00 | 0.00 | 82 | 1019.3 |
| 20260902001029 | 60 | 175 | 0.9 | 4.3 | 0.00 | 0.00 | 0.00 | 81 | 1019.4 |
| 20260902000030 | 60 | 171 | 0.9 | 3.5 | 0.00 | 0.00 | 0.00 | 81 | 1019.4 |
| 20260901235030 | 60 | 181 | 1.7 | 4.3 | 0.00 | 0.00 | 0.00 | 82 | 1019.6 |
| 20260901234030 | 60 | 186 | 1.7 | 5.2 | 0.00 | 0.00 | 0.00 | 82 | 1019.6 |
| 20260901233032 | 60 | 182 | 2.6 | 5.2 | 0.00 | 0.00 | 0.00 | 82 | 1019.7 |
| 20260901232029 | 60 | 179 | 1.7 | 3.5 | 0.00 | 0.00 | 0.00 | 81 | 1019.7 |
| 20260901231030 | 60 | 186 | 1.7 | 3.5 | 0.00 | 0.00 | 0.00 | 81 | 1019.7 |
| 20260901230030 | 60 | 185 | 1.7 | 4.3 | 0.00 | 0.00 | 0.00 | 81 | 1019.7 |
| 20260901225030 | 60 | 179 | 0.9 | 1.7 | 0.00 | 0.00 | 0.00 | 80 | 1019.7 |
| 20260901224030 | 60 | 166 | 0.9 | 3.5 | 0.00 | 0.00 | 0.00 | 80 | 1019.7 |
| 20260901223029 | 60 | 154 | 0.9 | 2.6 | 0.00 | 0.00 | 0.00 | 79 | 1019.7 |
| 20260901222030 | 61 | 172 | 0.9 | 2.6 | 0.00 | 0.00 | 0.00 | 79 | 1019.8 |
| 20260901221030 | 61 | 183 | 0.9 | 1.7 | 0.00 | 0.00 | 0.00 | 78 | 1019.7 |
| 20260901220030 | 61 | 169 | 0.9 | 2.6 | 0.00 | 0.00 | 0.00 | 78 | 1019.8 |
| 20260901215030 | 61 | 118 | 0.9 | 3.5 | 0.00 | 0.00 | 0.00 | 77 | 1019.5 |
| 20260901214030 | 61 | 183 | 1.7 | 5.2 | 0.00 | 0.00 | 0.00 | 77 | 1020.0 |
| 20260901213030 | 61 | 179 | 0.9 | 3.5 | 0.00 | 0.00 | 0.00 | 77 | 1020.2 |
| 20260901212030 | 62 | 187 | 2.6 | 5.2 | 0.00 | 0.00 | 0.00 | 77 | 1020.2 |
| 20260901211030 | 62 | 192 | 3.5 | 6.1 | 0.00 | 0.00 | 0.00 | 76 | 1020.4 |
| 20260901210030 | 62 | 194 | 3.5 | 6.1 | 0.00 | 0.00 | 0.00 | 76 | 1020.4 |
| 20260901205030 | 62 | 203 | 4.3 | 7.0 | 0.00 | 0.00 | 0.00 | 76 | 1020.4 |
| 20260901204030 | 62 | 195 | 4.3 | 6.1 | 0.00 | 0.00 | 0.00 | 76 | 1020.3 |
| 20260901203030 | 62 | 205 | 4.3 | 7.0 | 0.00 | 0.00 | 0.00 | 76 | 1020.4 |
| 20260901202030 | 62 | 198 | 4.3 | 6.1 | 0.00 | 0.00 | 0.00 | 76 | 1020.4 |
| 20260901201030 | 63 | 199 | 4.3 | 6.1 | 0.00 | 0.00 | 0.00 | 75 | 1020.4 |
| 20260901200030 | 63 | 209 | 4.3 | 6.1 | 0.00 | 0.00 | 0.00 | 75 | 1020.3 |
| 20260901195030 | 64 | 193 | 3.5 | 5.2 | 0.00 | 0.00 | 0.00 | 73 | 1020.1 |
| 20260901194030 | 64 | 225 | 6.1 | 8.7 | 0.00 | 0.00 | 0.00 | 73 | 1020.0 |
| 20260901193030 | 64 | 238 | 7.8 | 10.4 | 0.00 | 0.00 | 0.00 | 73 | 1019.9 |
| 20260901192030 | 64 | 241 | 7.8 | 10.4 | 0.00 | 0.00 | 0.00 | 71 | 1019.8 |
| 20260901191029 | 64 | 243 | 8.7 | 10.4 | 0.00 | 0.00 | 0.00 | 72 | 1019.9 |
| 20260901190030 | 64 | 238 | 8.7 | 11.3 | 0.00 | 0.00 | 0.00 | 72 | 1019.9 |
| 20260901185030 | 65 | 248 | 8.7 | 11.3 | 0.00 | 0.00 | 0.00 | 73 | 1019.9 |
| 20260901184030 | 65 | 253 | 10.4 | 13.0 | 0.00 | 0.00 | 0.00 | 71 | 1019.8 |
| 20260901183029 | 65 | 260 | 9.6 | 12.2 | 0.00 | 0.00 | 0.00 | 71 | 1019.7 |
| 20260901182030 | 65 | 252 | 9.6 | 13.0 | 0.00 | 0.00 | 0.00 | 69 | 1019.8 |
| 20260901181030 | 65 | 253 | 10.4 | 13.0 | 0.00 | 0.00 | 0.00 | 69 | 1019.9 |
| 20260901180030 | 65 | 248 | 11.3 | 14.8 | 0.00 | 0.00 | 0.00 | 69 | 1020.0 |
| 20260901175030 | 66 | 267 | 11.3 | 13.0 | 0.00 | 0.00 | 0.00 | 71 | 1020.0 |
| 20260901174030 | 66 | 265 | 9.6 | 12.2 | 0.00 | 0.00 | 0.00 | 70 | 1020.0 |
| 20260901173030 | 66 | 260 | 9.6 | 13.0 | 0.00 | 0.00 | 0.00 | 70 | 1020.0 |
| 20260901172030 | 66 | 259 | 10.4 | 13.0 | 0.00 | 0.00 | 0.00 | 68 | 1020.0 |
| 20260901171030 | 66 | 261 | 12.2 | 14.8 | 0.00 | 0.00 | 0.00 | 68 | 1020.1 |
| 20260901170030 | 66 | 262 | 10.4 | 13.0 | 0.00 | 0.00 | 0.00 | 69 | 1020.1 |
| 20260901165030 | 66 | 261 | 11.3 | 13.9 | 0.00 | 0.00 | 0.00 | 69 | 1020.1 |
| 20260901164029 | 66 | 248 | 11.3 | 13.0 | 0.00 | 0.00 | 0.00 | 68 | 1020.1 |
| 20260901163030 | 66 | 243 | 10.4 | 13.0 | 0.00 | 0.00 | 0.00 | 67 | 1020.0 |
| 20260901162030 | 66 | 248 | 10.4 | 14.8 | 0.00 | 0.00 | 0.00 | 71 | 1019.9 |
| 20260901161029 | 66 | 244 | 10.4 | 13.9 | 0.00 | 0.00 | 0.00 | 67 | 1019.9 |
| 20260901160030 | 66 | 244 | 11.3 | 14.8 | 0.00 | 0.00 | 0.00 | 68 | 1019.9 |
| 20260901155030 | 66 | 252 | 11.3 | 14.8 | 0.00 | 0.00 | 0.00 | 69 | 1019.8 |
| 20260901154030 | 66 | 237 | 12.2 | 15.6 | 0.00 | 0.00 | 0.00 | 70 | 1019.8 |
| 20260901153030 | 66 | 253 | 12.2 | 14.8 | 0.00 | 0.00 | 0.00 | 71 | 1019.7 |
| 20260901152030 | 66 | 251 | 13.0 | 15.6 | 0.00 | 0.00 | 0.00 | 70 | 1019.9 |
| 20260901151030 | 66 | 243 | 12.2 | 15.6 | 0.00 | 0.00 | 0.00 | 71 | 1019.7 |
| 20260901150030 | 66 | 251 | 13.0 | 15.6 | 0.00 | 0.00 | 0.00 | 72 | 1019.6 |
| 20260901145030 | 66 | 256 | 13.0 | 15.6 | 0.00 | 0.00 | 0.00 | 73 | 1019.6 |
| 20260901144030 | 66 | 256 | 13.0 | 15.6 | 0.00 | 0.00 | 0.00 | 71 | 1019.6 |
| 20260901143030 | 66 | 252 | 11.3 | 16.5 | 0.00 | 0.00 | 0.00 | 72 | 1019.6 |
| 20260901142030 | 65 | 262 | 13.9 | 17.4 | 0.00 | 0.00 | 0.00 | 73 | 1019.6 |
| 20260901141030 | 65 | 263 | 14.8 | 20.0 | 0.00 | 0.00 | 0.00 | 73 | 1019.6 |
| 20260901140029 | 65 | 272 | 14.8 | 20.0 | 0.00 | 0.00 | 0.00 | 75 | 1019.6 |
| 20260901135030 | 65 | 267 | 14.8 | 17.4 | 0.00 | 0.00 | 0.00 | 75 | 1019.5 |
| 20260901134030 | 65 | 273 | 13.0 | 17.4 | 0.00 | 0.00 | 0.00 | 77 | 1019.5 |
| 20260901133030 | 64 | 271 | 13.9 | 20.0 | 0.00 | 0.00 | 0.00 | 77 | 1019.5 |
| 20260901132029 | 64 | 270 | 15.6 | 20.0 | 0.00 | 0.00 | 0.00 | 76 | 1019.3 |
| 20260901131030 | 65 | 258 | 17.4 | 23.5 | 0.00 | 0.00 | 0.00 | 76 | 1019.4 |
| 20260901130030 | 65 | 258 | 17.4 | 22.6 | 0.00 | 0.00 | 0.00 | 75 | 1019.4 |
| 20260901125030 | 65 | 244 | 15.6 | 21.7 | 0.00 | 0.00 | 0.00 | 73 | 1019.4 |
| 20260901124029 | 65 | 251 | 13.9 | 17.4 | 0.00 | 0.00 | 0.00 | 72 | 1019.5 |
| 20260901123030 | 65 | 271 | 17.4 | 22.6 | 0.00 | 0.00 | 0.00 | 70 | 1019.4 |
| 20260901122030 | 65 | 277 | 17.4 | 23.5 | 0.00 | 0.00 | 0.00 | 70 | 1019.4 |
| 20260901121030 | 65 | 279 | 18.2 | 22.6 | 0.00 | 0.00 | 0.00 | 72 | 1019.3 |
| 20260901120030 | 65 | 269 | 16.5 | 21.7 | 0.00 | 0.00 | 0.00 | 71 | 1019.5 |
| 20260901115030 | 65 | 268 | 18.2 | 23.5 | 0.00 | 0.00 | 0.00 | 72 | 1019.3 |
| 20260901114030 | 65 | 263 | 17.4 | 20.9 | 0.00 | 0.00 | 0.00 | 74 | 1019.3 |
| 20260901113030 | 64 | 281 | 18.2 | 23.5 | 0.00 | 0.00 | 0.00 | 76 | 1019.2 |
| 20260901112029 | 64 | 271 | 18.2 | 23.5 | 0.00 | 0.00 | 0.00 | 74 | 1019.1 |
| 20260901111030 | 65 | 251 | 16.5 | 21.7 | 0.00 | 0.00 | 0.00 | 70 | 1019.1 |
| 20260901110030 | 65 | 249 | 15.6 | 20.9 | 0.00 | 0.00 | 0.00 | 69 | 1019.1 |
| 20260901105029 | 65 | 232 | 14.8 | 20.0 | 0.00 | 0.00 | 0.00 | 69 | 1019.1 |
| 20260901104030 | 64 | 253 | 17.4 | 21.7 | 0.00 | 0.00 | 0.00 | 70 | 1019.1 |
| 20260901103030 | 64 | 244 | 16.5 | 21.7 | 0.00 | 0.00 | 0.00 | 73 | 1019.0 |
| 20260901102030 | 64 | 254 | 17.4 | 23.5 | 0.00 | 0.00 | 0.00 | 74 | 1019.0 |
| 20260901101030 | 64 | 248 | 15.6 | 22.6 | 0.00 | 0.00 | 0.00 | 74 | 1018.9 |
| 20260901100029 | 64 | 241 | 15.6 | 19.1 | 0.00 | 0.00 | 0.00 | 73 | 1018.8 |
| 20260901095030 | 64 | 253 | 15.6 | 22.6 | 0.00 | 0.00 | 0.00 | 71 | 1018.9 |
| 20260901094030 | 64 | 245 | 14.8 | 20.9 | 0.00 | 0.00 | 0.00 | 76 | 1018.9 |